EW6800 Weather Reports


Display with metric or nautical units.
time (UTC)temp
F
wind
direction
speed
MPH
gust
MPH
rain 1hr
in
rain 24hr
in
rain mn
in
humidity
%
barometer
mb
20260831190543 53 301 3.0 8.0 0.00 0.00 0.00 96 1015.7
20260831190113 53 301 3.0 8.0 0.00 0.00 0.00 96 1015.6
20260831185545 53 296 3.0 8.0 0.00 0.00 0.00 96 1015.5
20260831185045 53 288 3.0 8.0 0.00 0.00 0.00 96 1015.4
20260831184604 53 313 2.0 7.0 0.00 0.00 0.00 96 1015.4
20260831184043 53 304 3.0 7.0 0.00 0.00 0.00 96 1015.5
20260831183544 53 306 4.0 7.0 0.00 0.00 0.00 96 1015.6
20260831183101 53 307 4.0 7.0 0.00 0.00 0.00 96 1015.6
20260831182543 53 315 2.0 5.0 0.00 0.00 0.00 96 1015.7
20260831182044 53 300 0.0 2.0 0.00 0.00 0.00 96 1015.8
20260831181554 52 314 0.0 4.0 0.00 0.00 0.00 96 1015.8
20260831181044 52 314 1.0 4.0 0.00 0.00 0.00 96 1015.7
20260831180544 52 314 3.0 4.0 0.00 0.00 0.00 96 1015.7
20260831180057 52 315 0.0 5.0 0.00 0.00 0.00 96 1015.6
20260831175543 52 315 1.0 5.0 0.00 0.00 0.00 96 1015.6
20260831175044 52 314 0.0 3.0 0.00 0.00 0.00 96 1015.7
20260831174609 52 0 1.0 5.0 0.00 0.00 0.00 96 1015.6
20260831174044 51 314 0.0 5.0 0.00 0.00 0.00 96 1015.6
20260831173549 51 314 2.0 5.0 0.00 0.00 0.00 96 1015.6
20260831173057 51 0 1.0 4.0 0.00 0.00 0.00 96 1015.6
20260831172543 51 306 2.0 5.0 0.00 0.00 0.00 96 1015.7
20260831172043 51 316 0.0 5.0 0.00 0.00 0.00 96 1015.6
20260831171606 51 317 1.0 5.0 0.00 0.00 0.00 96 1015.6
20260831171044 51 314 1.0 4.0 0.00 0.00 0.00 96 1015.5
20260831170543 51 314 2.0 4.0 0.00 0.00 0.00 96 1015.4
20260831165543 51 0 1.0 7.0 0.00 0.00 0.00 96 1015.3
20260831165043 51 315 1.0 7.0 0.00 0.00 0.00 96 1015.3
20260831164607 51 322 2.0 5.0 0.00 0.00 0.00 96 1015.1
20260831164043 51 316 3.0 5.0 0.00 0.00 0.00 96 1015.1
20260831163545 51 313 1.0 4.0 0.00 0.00 0.00 96 1015.1
20260831163056 51 336 2.0 4.0 0.00 0.00 0.00 96 1015.1
20260831162543 51 306 1.0 3.0 0.00 0.00 0.00 96 1015.1
20260831162043 50 307 0.0 4.0 0.00 0.00 0.00 96 1014.9
20260831161554 50 307 1.0 5.0 0.00 0.00 0.00 96 1014.9
20260831161045 50 0 1.0 6.0 0.00 0.00 0.00 96 1014.8
20260831160544 50 305 3.0 7.0 0.00 0.00 0.00 96 1014.6
20260831160051 50 310 4.0 7.0 0.00 0.00 0.00 96 1014.6
20260831155547 50 326 2.0 4.0 0.00 0.00 0.00 96 1014.6
20260831155046 50 312 1.0 8.0 0.00 0.00 0.00 96 1014.7
20260831154620 50 313 3.0 8.0 0.00 0.00 0.00 96 1014.6
20260831154043 50 317 1.0 4.0 0.00 0.00 0.00 96 1014.5
20260831153543 50 312 2.0 4.0 0.00 0.00 0.00 96 1014.5
20260831153059 50 306 2.0 4.0 0.00 0.00 0.00 96 1014.4
20260831152546 50 315 2.0 4.0 0.00 0.00 0.00 96 1014.4
20260831152043 50 315 2.0 5.0 0.00 0.00 0.00 96 1014.4
20260831151553 50 315 2.0 7.0 0.00 0.00 0.00 96 1014.4
20260831151043 50 320 2.0 8.0 0.00 0.00 0.00 95 1014.4
20260831150543 50 324 4.0 8.0 0.00 0.00 0.00 96 1014.4
20260831150049 50 321 3.0 7.0 0.00 0.00 0.00 96 1014.3
20260831145543 50 311 3.0 6.0 0.00 0.00 0.00 96 1014.3
20260831145043 50 309 2.0 7.0 0.00 0.00 0.00 96 1014.0
20260831144551 50 321 3.0 7.0 0.00 0.00 0.00 96 1014.0
20260831144044 50 326 2.0 9.0 0.00 0.00 0.00 96 1014.0
20260831143543 50 318 4.0 9.0 0.00 0.00 0.00 95 1014.0
20260831143102 50 315 3.0 9.0 0.00 0.00 0.00 95 1014.0
20260831142546 50 319 3.0 7.0 0.00 0.00 0.00 96 1013.8
20260831142043 50 302 3.0 7.0 0.00 0.00 0.00 95 1013.7
20260831141557 50 312 2.0 8.0 0.00 0.00 0.00 95 1013.7
20260831141043 50 312 3.0 8.0 0.00 0.00 0.00 95 1013.7
20260831140543 50 300 3.0 8.0 0.00 0.00 0.00 95 1013.6
20260831140054 50 315 3.0 8.0 0.00 0.00 0.00 95 1013.7
20260831135544 50 316 3.0 8.0 0.00 0.00 0.00 95 1013.6
20260831135044 50 317 3.0 8.0 0.00 0.00 0.00 95 1013.5
20260831134604 50 309 4.0 8.0 0.00 0.00 0.00 95 1013.6
20260831134043 50 322 3.0 8.0 0.00 0.00 0.00 95 1013.5
20260831133543 50 314 4.0 9.0 0.00 0.00 0.00 95 1013.4
20260831133059 50 321 4.0 9.0 0.00 0.00 0.00 95 1013.4
20260831132543 50 321 4.0 10.0 0.00 0.00 0.00 95 1013.4
20260831132047 50 308 5.0 10.0 0.00 0.00 0.00 95 1013.3
20260831131600 49 302 5.0 9.0 0.00 0.00 0.00 95 1013.4
20260831131044 49 330 5.0 8.0 0.00 0.00 0.00 95 1013.4
20260831130544 49 313 4.0 8.0 0.00 0.00 0.00 95 1013.4
20260831130058 49 296 3.0 8.0 0.00 0.00 0.00 95 1013.4
20260831125544 49 308 4.0 8.0 0.00 0.00 0.00 95 1013.5
20260831125043 49 314 3.0 8.0 0.00 0.00 0.00 95 1013.6
20260831124603 49 315 3.0 8.0 0.00 0.00 0.00 95 1013.6
20260831124044 49 307 4.0 8.0 0.00 0.00 0.00 95 1013.5
20260831123544 49 308 3.0 8.0 0.00 0.00 0.00 95 1013.5
20260831123100 49 315 4.0 8.0 0.00 0.00 0.00 95 1013.5
20260831122543 49 310 4.0 8.0 0.00 0.00 0.00 95 1013.5
20260831122044 49 304 3.0 8.0 0.00 0.00 0.00 95 1013.4
20260831121558 49 317 3.0 7.0 0.00 0.00 0.00 95 1013.3
20260831121043 49 314 3.0 7.0 0.00 0.00 0.00 95 1013.3
20260831120542 49 316 4.0 8.0 0.00 0.00 0.00 95 1013.3
20260831120056 49 309 4.0 8.0 0.00 0.00 0.00 95 1013.2
20260831115543 49 305 3.0 7.0 0.00 0.00 0.00 95 1013.3
20260831115043 48 306 4.0 9.0 0.00 0.00 0.00 95 1013.4
20260831114600 49 309 5.0 9.0 0.00 0.00 0.00 95 1013.3
20260831114047 49 299 3.0 7.0 0.00 0.00 0.00 95 1013.3
20260831113544 49 313 2.0 5.0 0.00 0.00 0.00 95 1013.4
20260831113114 49 308 3.0 5.0 0.00 0.00 0.00 95 1013.3
20260831112546 49 311 2.0 4.0 0.00 0.00 0.00 95 1013.4
20260831112044 49 313 2.0 4.0 0.00 0.00 0.00 95 1013.4
20260831111551 49 312 2.0 6.0 0.00 0.00 0.00 95 1013.4
20260831111043 49 317 2.0 6.0 0.00 0.00 0.00 95 1013.5
20260831110547 49 322 2.0 6.0 0.00 0.00 0.00 95 1013.4
20260831110100 49 311 3.0 6.0 0.00 0.00 0.00 95 1013.4
20260831105544 48 304 2.0 5.0 0.00 0.00 0.00 95 1013.3
20260831105044 48 304 2.0 5.0 0.00 0.00 0.00 94 1013.3
20260831104601 48 316 3.0 5.0 0.00 0.00 0.00 94 1013.3
20260831104043 48 311 3.0 5.0 0.00 0.00 0.00 94 1013.3
20260831103546 48 306 3.0 5.0 0.00 0.00 0.00 94 1013.3
20260831103058 48 310 2.0 4.0 0.00 0.00 0.00 94 1013.2
20260831102546 48 312 2.0 4.0 0.00 0.00 0.00 94 1013.2
20260831102044 48 302 1.0 3.0 0.00 0.00 0.00 94 1013.2
20260831101555 48 294 0.0 1.0 0.00 0.00 0.00 94 1013.2
20260831101045 48 0 0.0 2.0 0.00 0.00 0.00 94 1013.1
20260831100549 48 294 0.0 3.0 0.00 0.00 0.00 94 1013.1
20260831100216 48 294 0.0 3.0 0.00 0.00 0.00 94 1013.1
20260831095543 48 294 1.0 3.0 0.00 0.00 0.00 94 1013.2
20260831095044 48 294 1.0 2.0 0.00 0.00 0.00 94 1013.2
20260831094614 48 254 1.0 2.0 0.00 0.00 0.00 94 1013.1
20260831094044 48 0 0.0 0.0 0.00 0.00 0.00 94 1013.0
20260831093544 48 0 0.0 1.0 0.00 0.00 0.00 94 1013.0
20260831093057 48 0 0.0 3.0 0.00 0.00 0.00 93 1013.1
20260831092545 48 0 0.0 3.0 0.00 0.00 0.00 93 1013.1
20260831092045 48 244 1.0 3.0 0.00 0.00 0.00 93 1013.2
20260831091552 48 154 1.0 2.0 0.00 0.00 0.00 93 1013.2
20260831091048 48 145 1.0 3.0 0.00 0.00 0.00 93 1013.2
20260831090546 49 144 1.0 3.0 0.00 0.00 0.00 92 1013.2
20260831090107 49 0 0.0 0.0 0.00 0.00 0.00 93 1013.2
20260831085544 49 0 0.0 0.0 0.00 0.00 0.00 93 1013.2
20260831085044 49 0 0.0 0.0 0.00 0.00 0.00 92 1013.3
20260831084602 49 0 0.0 0.0 0.00 0.00 0.00 92 1013.4
20260831084043 49 0 0.0 1.0 0.00 0.00 0.00 92 1013.4
20260831083543 49 0 0.0 2.0 0.00 0.00 0.00 91 1013.4
20260831083109 50 0 0.0 2.0 0.00 0.00 0.00 91 1013.4
20260831082544 50 144 0.0 1.0 0.00 0.00 0.00 90 1013.3
20260831082044 50 0 0.0 0.0 0.00 0.00 0.00 90 1013.3
20260831081609 51 0 0.0 0.0 0.00 0.00 0.00 90 1013.4
20260831081044 51 0 0.0 0.0 0.00 0.00 0.00 90 1013.4
20260831080544 52 0 0.0 0.0 0.00 0.00 0.00 89 1013.4
20260831080100 52 0 0.0 0.0 0.00 0.00 0.00 90 1013.4
20260831075543 52 0 0.0 0.0 0.00 0.00 0.00 89 1013.4
20260831075043 52 0 0.0 0.0 0.00 0.00 0.00 89 1013.5
20260831074557 52 0 0.0 0.0 0.00 0.00 0.00 89 1013.5
20260831074045 52 0 0.0 0.0 0.00 0.00 0.00 88 1013.5
20260831073543 52 0 0.0 1.0 0.00 0.00 0.00 87 1013.4
20260831073105 53 0 0.0 1.0 0.00 0.00 0.00 86 1013.4
20260831072543 54 0 0.0 1.0 0.00 0.00 0.00 86 1013.4
20260831072044 54 0 0.0 0.0 0.00 0.00 0.00 87 1013.3
20260831071602 55 0 0.0 0.0 0.00 0.00 0.00 88 1013.3
20260831071045 55 0 0.0 0.0 0.00 0.00 0.00 88 1013.3
20260831070544 55 0 0.0 0.0 0.00 0.00 0.00 88 1013.3
20260831065544 55 0 0.0 1.0 0.00 0.00 0.00 90 1013.3
20260831065044 54 0 0.0 1.0 0.00 0.00 0.00 90 1013.3
20260831064603 54 0 0.0 1.0 0.00 0.00 0.00 90 1013.3
20260831064047 54 0 0.0 2.0 0.00 0.00 0.00 90 1013.4
20260831063543 54 0 0.0 2.0 0.00 0.00 0.00 90 1013.4
20260831063059 54 0 1.0 2.0 0.00 0.00 0.00 90 1013.6
20260831062544 54 0 0.0 0.0 0.00 0.00 0.00 89 1013.6
20260831062044 54 0 0.0 0.0 0.00 0.00 0.00 89 1013.5
20260831061605 54 0 0.0 0.0 0.00 0.00 0.00 89 1013.6
20260831061046 54 0 0.0 1.0 0.00 0.00 0.00 88 1013.7
20260831060543 54 0 0.0 1.0 0.00 0.00 0.00 88 1013.7
20260831060059 55 0 0.0 3.0 0.00 0.00 0.00 88 1013.6
20260831055544 55 0 0.0 3.0 0.00 0.00 0.00 88 1013.6
20260831055044 55 144 2.0 3.0 0.00 0.00 0.00 87 1013.6
20260831054553 55 139 1.0 3.0 0.00 0.00 0.00 87 1013.6
20260831054044 55 0 1.0 3.0 0.00 0.00 0.00 86 1013.5
20260831053544 56 0 0.0 3.0 0.00 0.00 0.00 86 1013.5
20260831053102 56 131 1.0 3.0 0.00 0.00 0.00 85 1013.7
20260831052549 56 131 0.0 3.0 0.00 0.00 0.00 84 1013.7
20260831052044 57 0 0.0 4.0 0.00 0.00 0.00 84 1013.8
20260831051608 57 131 2.0 4.0 0.00 0.00 0.00 83 1013.7
20260831051043 57 124 2.0 3.0 0.00 0.00 0.00 83 1013.7
20260831050544 57 117 1.0 3.0 0.00 0.00 0.00 83 1013.7
20260831050059 57 117 1.0 3.0 0.00 0.00 0.00 83 1013.8
20260831045544 57 117 1.0 3.0 0.00 0.00 0.00 83 1013.8
20260831045044 58 0 2.0 3.0 0.00 0.00 0.00 83 1013.8
20260831044612 58 117 0.0 3.0 0.00 0.00 0.00 82 1013.8
20260831044045 58 0 0.0 3.0 0.00 0.00 0.00 82 1013.7
20260831043543 58 117 1.0 3.0 0.00 0.00 0.00 83 1013.8
20260831043059 58 0 0.0 2.0 0.00 0.00 0.00 82 1013.8
20260831042547 58 0 0.0 2.0 0.00 0.00 0.00 83 1013.8
20260831042047 57 0 0.0 2.0 0.00 0.00 0.00 83 1013.8
20260831041600 57 0 0.0 0.0 0.00 0.00 0.00 83 1013.7
20260831041043 57 0 0.0 0.0 0.00 0.00 0.00 84 1013.7
20260831040543 57 0 0.0 0.0 0.00 0.00 0.00 85 1013.7
20260831040109 57 0 0.0 0.0 0.00 0.00 0.00 85 1013.6
20260831035543 57 0 0.0 0.0 0.00 0.00 0.00 85 1013.6
20260831035043 57 0 0.0 0.0 0.00 0.00 0.00 86 1013.5
20260831034559 57 0 0.0 1.0 0.00 0.00 0.00 86 1013.5
20260831034043 57 0 0.0 1.0 0.00 0.00 0.00 86 1013.4
20260831033543 57 0 0.0 1.0 0.00 0.00 0.00 86 1013.5
20260831033100 57 0 0.0 1.0 0.00 0.00 0.00 86 1013.3
20260831032544 57 0 0.0 1.0 0.00 0.00 0.00 87 1013.3
20260831032048 56 0 0.0 1.0 0.00 0.00 0.00 87 1013.3
20260831031602 56 0 0.0 0.0 0.00 0.00 0.00 87 1013.3
20260831031043 56 0 0.0 0.0 0.00 0.00 0.00 87 1013.3
20260831030544 56 0 0.0 0.0 0.00 0.00 0.00 87 1013.3
20260831025544 56 0 0.0 2.0 0.00 0.00 0.00 85 1013.3
20260831025051 56 314 1.0 2.0 0.00 0.00 0.00 84 1013.3
20260831024601 57 0 0.0 2.0 0.00 0.00 0.00 84 1013.2
20260831024043 57 307 1.0 3.0 0.00 0.00 0.00 83 1013.2
20260831023547 58 306 1.0 3.0 0.00 0.00 0.00 82 1013.3
20260831023103 58 313 0.0 3.0 0.00 0.00 0.00 81 1013.3
20260831022543 59 311 0.0 2.0 0.00 0.00 0.00 81 1013.3
20260831022043 59 306 0.0 3.0 0.00 0.00 0.00 80 1013.3
20260831021551 59 0 0.0 3.0 0.00 0.00 0.00 79 1013.3
20260831021044 60 304 1.0 3.0 0.00 0.00 0.00 79 1013.2
20260831020547 60 300 1.0 4.0 0.00 0.00 0.00 78 1013.2
20260831015543 61 302 2.0 5.0 0.00 0.00 0.00 77 1013.3
20260831015043 61 305 2.0 4.0 0.00 0.00 0.00 76 1013.2
20260831014557 62 294 2.0 5.0 0.00 0.00 0.00 76 1013.2
20260831014043 62 302 2.0 5.0 0.00 0.00 0.00 75 1013.3
20260831013543 62 313 2.0 4.0 0.00 0.00 0.00 74 1013.3
20260831013108 63 313 2.0 5.0 0.00 0.00 0.00 73 1013.3
20260831012546 63 308 2.0 5.0 0.00 0.00 0.00 73 1013.3
20260831012046 64 305 2.0 5.0 0.00 0.00 0.00 72 1013.4
20260831011603 64 305 2.0 4.0 0.00 0.00 0.00 72 1013.4
20260831011048 64 304 1.0 4.0 0.00 0.00 0.00 71 1013.4
20260831010545 64 304 2.0 5.0 0.00 0.00 0.00 71 1013.5
20260831010058 65 303 3.0 6.0 0.00 0.00 0.00 70 1013.5
20260831005543 65 311 3.0 7.0 0.00 0.00 0.00 70 1013.5
20260831005044 66 303 3.0 7.0 0.00 0.00 0.00 69 1013.4
20260831004555 66 296 3.0 7.0 0.00 0.00 0.00 68 1013.5
20260831004044 66 296 3.0 7.0 0.00 0.00 0.00 67 1013.4
20260831003543 67 296 3.0 7.0 0.00 0.00 0.00 68 1013.4
20260831003104 67 306 4.0 7.0 0.00 0.00 0.00 67 1013.5
20260831002543 67 311 3.0 7.0 0.00 0.00 0.00 66 1013.5
20260831002045 67 298 3.0 7.0 0.00 0.00 0.00 66 1013.6
20260831001600 68 309 3.0 7.0 0.00 0.00 0.00 66 1013.6
20260831001043 68 301 3.0 7.0 0.00 0.00 0.00 65 1013.6
20260831000543 68 308 3.0 7.0 0.00 0.00 0.00 65 1013.7
20260831000106 68 302 3.0 7.0 0.00 0.00 0.00 66 1013.6
20260830235543 68 301 3.0 6.0 0.00 0.00 0.00 66 1013.6
20260830235046 68 298 3.0 7.0 0.00 0.00 0.00 65 1013.6
20260830234600 69 301 4.0 7.0 0.00 0.00 0.00 64 1013.7
20260830234043 69 304 3.0 5.0 0.00 0.00 0.00 64 1013.7
20260830233543 69 294 3.0 7.0 0.00 0.00 0.00 63 1013.6
20260830233103 69 302 3.0 7.0 0.00 0.00 0.00 63 1013.7
20260830232542 69 315 4.0 7.0 0.00 0.00 0.00 63 1013.6
20260830232046 69 304 3.0 7.0 0.00 0.00 0.00 63 1013.7
20260830231606 69 313 2.0 8.0 0.00 0.00 0.00 62 1013.8
20260830231045 70 300 4.0 8.0 0.00 0.00 0.00 62 1013.7
20260830230544 70 306 4.0 8.0 0.00 0.00 0.00 61 1013.7
20260830230052 70 315 5.0 8.0 0.00 0.00 0.00 61 1013.7
20260830225544 70 296 3.0 8.0 0.00 0.00 0.00 62 1013.8
20260830225046 70 304 4.0 8.0 0.00 0.00 0.00 61 1013.8
20260830224600 71 296 4.0 7.0 0.00 0.00 0.00 60 1013.9
20260830224044 71 317 4.0 7.0 0.00 0.00 0.00 60 1013.9
20260830223544 71 317 3.0 7.0 0.00 0.00 0.00 60 1013.9
20260830223110 71 312 3.0 7.0 0.00 0.00 0.00 60 1013.9
20260830222546 71 313 3.0 7.0 0.00 0.00 0.00 60 1014.0
20260830222044 71 302 3.0 7.0 0.00 0.00 0.00 61 1014.0
20260830221553 70 303 1.0 6.0 0.00 0.00 0.00 62 1014.0
20260830221044 70 303 3.0 7.0 0.00 0.00 0.00 61 1014.0
20260830220544 70 311 4.0 7.0 0.00 0.00 0.00 61 1014.0
20260830220050 70 299 3.0 8.0 0.00 0.00 0.00 61 1014.1
20260830215545 70 296 3.0 8.0 0.00 0.00 0.00 61 1014.3
20260830215045 70 292 3.0 8.0 0.00 0.00 0.00 61 1014.4
20260830214615 70 304 4.0 8.0 0.00 0.00 0.00 60 1014.4
20260830214045 71 297 4.0 8.0 0.00 0.00 0.00 60 1014.5
20260830213544 71 318 3.0 7.0 0.00 0.00 0.00 59 1014.6
20260830213102 71 310 3.0 7.0 0.00 0.00 0.00 58 1014.8
20260830212544 72 307 2.0 5.0 0.00 0.00 0.00 57 1014.7
20260830212045 73 311 2.0 5.0 0.00 0.00 0.00 56 1014.8
20260830211607 73 278 1.0 3.0 0.00 0.00 0.00 56 1015.0
20260830211045 73 296 2.0 5.0 0.00 0.00 0.00 56 1014.9
20260830210544 73 0 0.0 5.0 0.00 0.00 0.00 55 1014.9
20260830210117 74 15 0.0 2.0 0.00 0.00 0.00 55 1014.9
20260830205546 74 0 0.0 3.0 0.00 0.00 0.00 55 1015.0
20260830205046 73 0 0.0 4.0 0.00 0.00 0.00 57 1015.1
20260830204600 73 348 2.0 4.0 0.00 0.00 0.00 56 1014.9
20260830204044 73 0 0.0 3.0 0.00 0.00 0.00 56 1014.9
20260830203544 71 351 0.0 3.0 0.00 0.00 0.00 59 1015.0
20260830203053 71 0 0.0 5.0 0.00 0.00 0.00 59 1015.0
20260830202544 69 351 2.0 5.0 0.00 0.00 0.00 60 1015.0
20260830202044 69 330 1.0 4.0 0.00 0.00 0.00 62 1015.0
20260830201605 69 335 2.0 4.0 0.00 0.00 0.00 62 1015.0
20260830201044 69 327 1.0 4.0 0.00 0.00 0.00 62 1015.0
20260830200546 69 336 1.0 4.0 0.00 0.00 0.00 61 1015.1
20260830200104 68 0 0.0 4.0 0.00 0.00 0.00 63 1015.1
20260830195543 68 0 0.0 5.0 0.00 0.00 0.00 64 1015.1
20260830195045 68 323 1.0 5.0 0.00 0.00 0.00 65 1015.2
20260830194553 68 299 1.0 4.0 0.00 0.00 0.00 64 1015.2
20260830194043 67 305 1.0 3.0 0.00 0.00 0.00 65 1015.4
20260830193543 67 304 1.0 4.0 0.00 0.00 0.00 65 1015.3
20260830193050 67 338 0.0 5.0 0.00 0.00 0.00 65 1015.3
20260830192543 67 338 1.0 5.0 0.00 0.00 0.00 65 1015.4
20260830192043 66 296 1.0 3.0 0.00 0.00 0.00 67 1015.4
20260830191559 66 310 1.0 4.0 0.00 0.00 0.00 67 1015.5
20260830191043 65 309 1.0 4.0 0.00 0.00 0.00 66 1015.4